Weather in Bolshoe Nagatkino

Russia / Ulyanovsk Oblast     54°30′57″N   47°58′26″E
temp.,
°C
wind,
m/s
gust,
m/s
humid.,
%
clouds,
%
prec.,
mm/h
press.,
hPa
HPBL,
m
24 january, sun
sun2401:00+2wsw512100100 0.9 1020367
04:00+1wsw51297100 0.1 1020383
07:00+1ssw4997100 0.0 1020212
10:00+1ssw5999100 0.0 1021249
13:00+1ssw510100100 0.0 1022269
16:00+1ssw59100100 0.0 1023278
19:00+1ssw51095100 0.0 1024334
22:00+1ssw61197100 0.0 1024308
25 january, mon
mon2501:00+1ssw61296100 0.0 1025352
04:00+1ssw6129299 0.0 1025404
07:000ssw6129297 0.0 1026479
10:00−3s4993100 0.0 1026259
13:00−3s51091100 0.0 1026343
16:00−2s6109499 0.0 1027494
19:00−2s61092100 0.0 1027528
22:00−2s61191100 0.0 1026610
26 january, tue
tue2601:00−2s51094100 0.1 1026552
04:00−3s51092100 0.1 1025631
07:00−2s51093100 0.1 1024493
10:00−4s61193100 0.1 1024540
13:00−4s61291100 0.0 1024544
16:00−2s51192100 0.0 1023547
19:00−3s61193100 0.1 1022724
22:00−2s51094100 0.1 1023532
27 january, wed
wed2701:00−2sse61193100 0.1 1022444
04:00−2sse61193100 0.1 1022431
07:00+1ssw41094100 0.0 1020437
10:00−2s51194100 0.0 1021555
13:00−2s61193100 0.0 1021513
16:000s599199 0.0 1023461
19:00−4sse61289100 0.0 1020443
22:00−5sse61389100 0.0 1020443
28 january, thu
thu2801:00−6sse61389100 0.0 1019418
04:00−7sse51391100 0.0 1019385
07:00−8sse41292100 0.0 1018347
10:00−9se5991100 0.0 1024239
13:00−6se51087100 0.0 1023337
16:00−7se51088100 0.0 1022297
19:00−7sse41093100 0.0 1015419
22:00−8s41094100 0.0 1015392